JA7KUB Weather Reports


time (UTC)temp
F
wind
direction
speed
knots
gust
knots
rain 1hr
in
rain 24hr
in
rain mn
in
humidity
%
barometer
mb
20260505153330 48 101 0.9 4.3 0.00 0.00 0.00 76 1032.6
20260505150327 49 101 0.9 6.1 0.00 0.00 0.00 75 1032.6
20260505140326 50 118 0.9 3.5 0.00 0.00 0.00 72 1032.6
20260505123324 50 234 1.7 5.2 0.00 0.00 0.00 72 1032.5
20260505120321 48 84 0.0 2.6 0.00 0.00 0.00 86 1032.1
20260505113320 47 85 0.0 0.0 0.00 0.00 0.00 90 1031.8
20260505110318 48 85 0.0 0.0 0.00 0.00 0.00 87 1031.7
20260505100316 53 89 0.0 0.9 0.00 0.00 0.00 77 1030.7
20260505093316 56 70 0.9 3.5 0.00 0.00 0.00 69 1030.7
20260505090333 61 283 0.0 2.6 0.00 0.00 0.00 62 1030.1
20260505083333 63 235 1.7 5.2 0.00 0.00 0.00 54 1029.9
20260505080351 66 195 2.6 5.2 0.00 0.04 0.00 45 1029.6
20260505073350 67 133 0.9 3.5 0.00 0.04 0.00 39 1029.3
20260505070327 66 138 0.9 7.0 0.00 0.04 0.00 41 1029.3
20260505063347 66 355 0.9 6.1 0.00 0.04 0.00 41 1029.2
20260505060344 65 131 2.6 7.8 0.00 0.04 0.00 40 1029.1
20260505053323 64 287 0.9 9.6 0.00 0.04 0.00 41 1029.4
20260505050321 64 224 1.7 7.8 0.00 0.04 0.00 43 1029.6
20260505040339 63 254 4.3 12.2 0.00 0.04 0.00 39 1029.6
20260505033317 61 296 3.5 11.3 0.00 0.04 0.00 43 1029.9
20260505030315 60 329 4.3 13.0 0.00 0.04 0.00 46 1030.2
20260505023315 59 122 8.7 18.2 0.00 0.04 0.00 42 1030.1
20260505020333 58 238 5.2 13.9 0.00 0.04 0.00 48 1030.1
20260505013333 58 172 3.5 11.3 0.00 0.04 0.00 53 1030.0
20260505010331 56 252 6.1 13.9 0.00 0.04 0.00 57 1029.8
20260505003331 55 248 5.2 9.6 0.00 0.04 0.00 63 1029.5
20260505000328 53 271 4.3 11.3 0.00 0.08 0.00 66 1029.2
20260504233326 52 299 1.7 10.4 0.00 0.08 0.00 68 1028.8
20260504230324 51 307 3.5 10.4 0.00 0.08 0.00 70 1028.4
20260504223345 50 310 6.1 14.8 0.00 0.08 0.00 71 1027.9
20260504220322 48 210 4.3 11.3 0.00 1.10 0.00 74 1027.6
20260504213322 47 325 7.8 13.0 0.00 1.10 0.00 76 1026.9
20260504210319 46 306 3.5 6.1 0.00 1.22 0.00 80 1026.8
20260504203320 45 283 2.6 4.3 0.00 1.22 0.00 81 1026.4
20260504200318 44 86 1.7 12.2 0.00 1.26 0.00 82 1025.6
20260504193317 44 1 4.3 12.2 0.00 1.26 0.00 83 1024.9
20260504190316 44 302 2.6 13.9 0.00 1.54 0.00 82 1024.5
20260504183316 44 307 4.3 10.4 0.00 1.54 0.00 81 1023.9
20260504180334 44 323 3.5 12.2 0.00 2.09 0.00 82 1023.3
20260504173334 44 298 3.5 9.6 0.00 2.09 0.00 81 1022.7
20260504170332 44 300 7.0 14.8 0.00 2.40 0.00 81 1022.3
20260504160330 45 291 8.7 19.1 0.00 2.44 0.00 78 1020.8